TimeEDT,TemperatureF,Dew PointF,Humidity,Sea Level PressureIn,VisibilityMPH,Wind Direction,Wind SpeedMPH,Gust SpeedMPH,PrecipitationIn,Events,Conditions,WindDirDegrees,DateUTC
12:54 AM,68.0,52.0,56,29.89,10.0,South,8.1,-,N/A,,Clear,190,2013-04-10 04:54:00
1:54 AM,69.1,52.0,54,29.87,10.0,SSW,5.8,-,N/A,,Clear,210,2013-04-10 05:54:00
2:54 AM,71.1,52.0,51,29.86,10.0,SW,9.2,-,N/A,,Clear,230,2013-04-10 06:54:00
3:54 AM,69.1,52.0,54,29.86,10.0,SW,8.1,-,N/A,,Clear,230,2013-04-10 07:54:00
4:54 AM,68.0,52.0,56,29.87,10.0,WSW,9.2,-,N/A,,Clear,240,2013-04-10 08:54:00
5:54 AM,66.9,52.0,59,29.89,10.0,WSW,8.1,-,N/A,,Clear,240,2013-04-10 09:54:00
6:54 AM,66.0,52.0,60,29.91,10.0,WSW,5.8,-,N/A,,Clear,250,2013-04-10 10:54:00
7:54 AM,68.0,52.0,56,29.93,10.0,SW,4.6,-,N/A,,Clear,230,2013-04-10 11:54:00
8:54 AM,71.1,52.0,51,29.93,10.0,WSW,4.6,-,N/A,,Scattered Clouds,240,2013-04-10 12:54:00
9:54 AM,75.0,53.1,46,29.93,10.0,Variable,3.5,-,N/A,,Clear,0,2013-04-10 13:54:00
10:54 AM,79.0,55.0,44,29.91,10.0,NE,4.6,-,N/A,,Clear,50,2013-04-10 14:54:00
11:54 AM,82.9,54.0,37,29.90,10.0,WSW,6.9,-,N/A,,Clear,250,2013-04-10 15:54:00
2:54 PM,88.0,54.0,31,29.85,10.0,WSW,11.5,18.4,N/A,,Partly Cloudy,240,2013-04-10 18:54:00
3:54 PM,88.0,54.0,31,29.83,10.0,WSW,13.8,21.9,N/A,,Partly Cloudy,240,2013-04-10 19:54:00
4:54 PM,75.9,53.1,45,29.82,10.0,Variable,4.6,-,N/A,,Scattered Clouds,0,2013-04-10 20:54:00
5:54 PM,70.0,51.1,51,29.82,10.0,East,6.9,-,N/A,,Partly Cloudy,90,2013-04-10 21:54:00
6:54 PM,66.9,51.1,57,29.79,10.0,East,4.6,-,N/A,,Clear,90,2013-04-10 22:54:00
7:54 PM,64.0,51.1,63,29.83,10.0,North,17.3,23.0,N/A,,Scattered Clouds,10,2013-04-10 23:54:00
8:54 PM,63.0,52.0,67,29.88,5.0,East,8.1,-,0.01,Rain,Light Rain,80,2013-04-11 00:54:00
9:54 PM,61.0,52.0,72,29.81,10.0,SSE,8.1,-,0.01,,Clear,150,2013-04-11 01:54:00
10:31 PM,64.4,55.4,73,29.94,10.0,NW,20.7,39.1,N/A,,Squalls,320,2013-04-11 02:31:00
10:42 PM,64.4,57.2,77,29.95,7.0,NNW,11.5,31.1,0.02,Rain,Rain,330,2013-04-11 02:42:00
10:54 PM,63.0,59.0,87,29.94,3.0,NNW,8.1,17.3,0.10,Rain,Heavy Rain,330,2013-04-11 02:54:00
11:01 PM,62.6,59.0,88,29.94,2.5,NNW,9.2,-,0.05,Rain,Heavy Rain,330,2013-04-11 03:01:00
11:15 PM,62.6,60.8,94,29.92,4.0,Calm,Calm,-,0.09,Rain,Rain,0,2013-04-11 03:15:00
11:54 PM,62.1,60.1,93,29.89,8.0,Calm,Calm,-,0.13,Rain,Light Rain,0,2013-04-11 03:54:00